Clarksburg, WV

5:03 PM EST on December 05, 2019 (GMT -0500)
Benedum

Weather History for KCKB - November, 2019

Change the Weather History Date:

Sunday, November 17, 2019

  Actual Average Record
Temperature  
Mean Temperature 42 °F -  
Max Temperature 58 °F 52 °F 82 °F (1958)
Min Temperature 26 °F 30 °F 2 °F (1933)
Degree Days  
Heating Degree Days 23    
Month to date heating degree days 417  
Moisture  
Dew Point 23 °F    
Average Humidity 49    
Maximum Humidity 70    
Minimum Humidity 28    
Precipitation  
Precipitation 0.00 in - - ()
Month to date precipitation 0.69  
Year to date precipitation 36.09  
Sea Level Pressure  
Sea Level Pressure 30.05 in    
Wind  
Wind Speed 2 mph (ENE)    
Max Wind Speed 9 mph    
Max Gust Speed 13 mph    
Visibility 10 miles    
Events      
Averages and records for this station are not official NWS values.
T = Trace of Precipitation, MM = Missing Value Source: NWS Daily Summary

Daily Weather History Graph

Daily Weather History Graph

Search for Another Location

Airport or City:

Astronomy

Nov. 17, 2019 Rise Set
Actual Time 7:06 AM EST 5:04 PM EST
Civil Twilight 6:37 AM EST 5:33 PM EST
Nautical Twilight 6:05 AM EST 6:06 PM EST
Astronomical Twilight 5:33 AM EST 6:37 PM EST
Moon 9:40 PM EST (11/17) 11:50 AM EST (11/17)
Length of Visible Light 10h 56m
Length of Day
9h 58m
Waning Gibbous, 73% of the Moon is Illuminated
Nov 17
Waning Gibbous
Nov 19
Last Quarter
Nov 26
New
Dec 4
First Quarter
Dec 12
Full

Hourly Weather History & Observations

Time (EST) Temp. Windchill Dew Point Humidity Pressure Visibility Wind Dir Wind Speed Gust Speed Precip Events Conditions
12:53 AM 32.0 °F 27.5 °F 15.1 °F 50% 30.20 in 10.0 mi East 4.6 mph - N/A   Clear
1:53 AM 33.1 °F 30.0 °F 12.9 °F 43% 30.19 in 10.0 mi East 3.5 mph - N/A   Clear
2:53 AM 30.9 °F 27.5 °F 12.0 °F 46% 30.19 in 10.0 mi East 3.5 mph - N/A   Clear
4:53 AM 33.1 °F 28.7 °F 15.1 °F 48% 30.18 in 10.0 mi ESE 4.6 mph - N/A   Clear
5:53 AM 30.9 °F - 17.1 °F 57% 30.18 in 10.0 mi Calm Calm - N/A   Clear
6:53 AM 26.1 °F - 16.0 °F 66% 30.17 in 10.0 mi Calm Calm - N/A   Clear
7:53 AM 28.9 °F - 19.0 °F 67% 30.16 in 10.0 mi Calm Calm - N/A   Clear
8:53 AM 37.0 °F - 23.0 °F 57% 30.14 in 10.0 mi Calm Calm - N/A   Clear
9:53 AM 44.1 °F - 26.1 °F 49% 30.12 in 10.0 mi Calm Calm - N/A   Clear
10:53 AM 48.0 °F - 26.1 °F 42% 30.11 in 10.0 mi ENE 4.6 mph - N/A   Clear
11:53 AM 52.0 °F - 25.0 °F 35% 30.06 in 10.0 mi Calm Calm - N/A   Clear
12:53 PM 54.0 °F - 25.0 °F 33% 30.02 in 10.0 mi Calm Calm - N/A   Clear
1:53 PM 55.0 °F - 24.1 °F 30% 29.99 in 10.0 mi Calm Calm - N/A   Clear
2:53 PM 57.0 °F - 25.0 °F 29% 29.96 in 10.0 mi Variable 5.8 mph - N/A   Clear
3:53 PM 55.9 °F - 25.0 °F 30% 29.94 in 10.0 mi NE 3.5 mph - N/A   Clear
4:53 PM 48.9 °F - 27.0 °F 43% 29.95 in 10.0 mi NNE 6.9 mph - N/A   Clear
5:53 PM 46.0 °F 43.9 °F 27.0 °F 47% 29.95 in 10.0 mi NE 4.6 mph - N/A   Clear
6:53 PM 44.1 °F 41.5 °F 28.0 °F 53% 29.96 in 10.0 mi ENE 4.6 mph - N/A   Clear
7:53 PM 39.9 °F 36.7 °F 27.0 °F 60% 29.95 in 10.0 mi NE 4.6 mph - N/A   Clear
9:53 PM 37.9 °F - 27.0 °F 65% 29.90 in 10.0 mi Calm Calm - N/A   Clear
10:53 PM 36.0 °F - 27.0 °F 70% 29.89 in 10.0 mi Calm Calm - N/A   Clear
11:53 PM 35.1 °F - 27.0 °F 72% 29.86 in 10.0 mi Calm Calm - N/A   Clear